Location: Tucson
(32.2217°N, 110.9265°W)
Time: 07:42:43
(UTC-07:00)

Tiros 1 despin weight - Visible Passes

Search period start: 25 October 2021 00:00
Search period end: 04 November 2021 00:00
Orbit: 592 x 641 km, 48.2° (Epoch: 24 October)

Date Brightness Start Highest point End Pass type
(mag) Time Alt. Az. Time Alt. Az. Time Alt. Az.
25 Oct ? 03:33:39 12° ENE 03:33:39 12° ENE 03:34:04 10° ENE visible
25 Oct ? 05:10:42 28° NW 05:11:17 28° NNW 05:15:20 10° NNE visible
26 Oct ? 03:49:30 15° NE 03:49:30 15° NE 03:50:21 10° NE visible
26 Oct ? 05:26:34 17° NW 05:27:51 19° NNW 05:31:09 10° NNE visible
27 Oct ? 04:05:17 16° NNE 04:05:17 16° NNE 04:06:23 10° NE visible
27 Oct ? 05:42:20 10° NW 05:44:35 14° NNW 05:46:57 10° NNE visible
28 Oct ? 04:20:59 16° NNE 04:20:59 16° NNE 04:22:15 10° NNE visible
28 Oct ? 05:59:57 10° NNW 06:01:25 11° N 06:02:52 10° NNE visible
29 Oct ? 04:36:37 14° N 04:36:37 14° N 04:38:03 10° NNE visible
30 Oct ? 04:52:14 12° N 04:52:14 12° N 04:53:52 10° NNE visible
31 Oct ? 05:07:48 10° NNW 05:08:45 11° N 05:09:57 10° NNE visible
01 Nov ? 05:24:12 10° NNW 05:25:39 11° N 05:27:04 10° NNE visible
02 Nov ? 05:40:07 10° NNW 05:42:28 14° NNE 05:44:50 10° NE visible
03 Nov ? 05:55:53 10° NNW 05:59:11 19° NNE 06:02:29 10° ENE visible
